Home   Weather   Saguenay   Past weeks

Flag for Canada Past Weather in Saguenay, Quebec, Canada — Yesterday and Last 2 Weeks

Now
57 °F

Refreshingly cool.


Feels Like: 56 °F
Forecast: 46 / 71 °F
Wind: 6 mph from East

Location: Jonquiere Airport

Current Time: May 25, 2017 at 8:43:15 am

Latest Report: May 25, 2017 at 8:00 am


Visibility: N/A

Pressure: 30.00 "Hg

Humidity: 55%

Dew Point: 40 °F

Location of SaguenayLocation

Past Weather in Saguenay — Graph

°F

Saguenay Temperature Yesterday

Maximum temperature yesterday: 66 °F (at 6:00 pm)
Minimum temperature yesterday: 49 °F (at 5:00 am)
Average temperature yesterday: 57 °F

High & Low Weather Summary for the Past Weeks

 TemperatureHumidityPressure
High72 °F (May 15, 5:00 pm)100% (May 12, 4:00 am)30.51 "Hg (May 12, 4:00 am)
Low35 °F (May 21, 5:00 am)21% (May 15, 3:00 pm)29.56 "Hg (May 18, 3:00 pm)
Average54 °F64%29.96 "Hg
* Reported May 10 7:00 am — May 25 7:00 am, Saguenay. Weather by CustomWeather, © 2017

Note: Actual official high and low records may vary slightly from our data, if they occured in-between our weather recording intervals... More about our weather records

Advertising

Saguenay Weather History for the Previous 24 Hours

Scroll right to see more
 ConditionsComfort  
Time TempWeatherWind HumidityBarometerVisibility
7:00 am
Thu, May 25
52 °FCool.7 mph59%30.00 "HgN/A
6:00 am49 °FCool.7 mph73%30.00 "HgN/A
5:00 am47 °FCool.5 mph78%29.98 "HgN/A
4:00 am48 °FCool.5 mph77%29.98 "HgN/A
3:00 am49 °FCool.6 mph77%29.97 "HgN/A
2:00 am50 °FCool.6 mph77%29.96 "HgN/A
1:00 am51 °FCool.6 mph76%29.97 "HgN/A
12:00 am52 °FCool.7 mph68%29.96 "HgN/A
11:00 pm
Wed, May 24
53 °FCool.6 mph73%29.95 "HgN/A
10:00 pm55 °FCool.8 mph73%29.93 "HgN/A
9:00 pm57 °FCool.6 mph65%29.90 "HgN/A
8:00 pm61 °FRefreshingly cool.3 mph50%29.89 "HgN/A
7:00 pm64 °FMild.3 mph47%29.88 "HgN/A
6:00 pm66 °FMild.2 mph41%29.86 "HgN/A
5:00 pm64 °FMild.3 mph46%29.85 "HgN/A
4:00 pm65 °FMild.2 mph44%29.85 "HgN/A
3:00 pm63 °FMild.2 mph48%29.86 "HgN/A
2:00 pm63 °FMild.5 mph56%29.86 "HgN/A
1:00 pm61 °FRefreshingly cool.3 mph58%29.87 "HgN/A
12:00 pm60 °FCool.5 mph65%29.86 "HgN/A
11:00 am59 °FCool.3 mph71%29.86 "HgN/A
10:00 am57 °FCool.2 mph73%29.86 "HgN/A
9:00 am55 °FCool.5 mph79%29.85 "HgN/A
8:00 am53 °FCool.6 mph85%29.84 "HgN/A
Weather by CustomWeather, © 2017

See weather overviewHow to use our weather pages